PDT,Max TemperatureF,Mean TemperatureF,Min TemperatureF,Max Dew PointF,MeanDew PointF,Min DewpointF,Max Humidity, Mean Humidity, Min Humidity, Max Sea Level PressureIn, Mean Sea Level PressureIn, Min Sea Level PressureIn, Max VisibilityMiles, Mean VisibilityMiles, Min VisibilityMiles, Max Wind SpeedMPH, Mean Wind SpeedMPH, Max Gust SpeedMPH,PrecipitationIn, CloudCover, Events, WindDirDegrees
2014-6-1,72,62,52,55,51,48,96,75,53,29.94,29.88,29.80,10,10,10,23,11,26,0.00,2,,306
2014-6-2,67,60,52,52,50,47,89,74,58,29.92,29.89,29.84,10,10,10,24,10,29,0.00,4,,227
2014-6-3,67,60,53,52,50,48,89,74,58,29.95,29.91,29.88,10,10,10,23,11,28,0.00,2,,267
2014-6-4,68,61,53,54,51,48,89,72,55,29.91,29.87,29.83,10,10,9,24,11,29,0.00,3,,304
2014-6-5,71,62,53,56,53,50,93,75,57,29.87,29.84,29.80,10,10,10,23,10,29,0.00,1,,311
2014-6-6,71,63,54,56,53,50,93,75,57,29.85,29.82,29.80,10,10,10,24,11,29,0.00,1,,303
2014-6-7,70,62,53,55,52,50,93,74,55,29.86,29.82,29.78,10,10,9,24,10,29,0.00,2,,303
2014-6-8,87,71,55,59,53,51,86,58,29,29.83,29.78,29.71,10,10,9,23,11,28,0.00,0,,291
2014-6-9,77,68,58,60,55,53,84,67,50,29.76,29.73,29.68,10,10,10,26,12,31,0.00,1,,297
2014-6-10,73,66,58,58,55,54,87,72,57,29.83,29.77,29.73,10,10,10,22,9,26,0.00,2,,291
2014-6-11,73,65,57,55,53,52,80,65,49,29.92,29.86,29.82,10,10,10,20,11,25,0.00,1,,203
2014-6-12,67,62,56,52,51,50,86,71,56,30.01,29.96,29.92,10,10,10,36,17,66,0.00,4,,258
2014-6-13,73,64,54,55,51,50,93,70,46,29.99,29.96,29.93,10,10,10,30,15,35,0.00,2,,280
2014-6-14,84,70,56,56,51,48,83,58,33,29.95,29.90,29.84,10,10,10,26,11,30,0.00,2,,290
2014-6-15,70,63,56,52,51,49,83,69,55,29.87,29.84,29.81,10,10,10,38,17,46,0.00,5,,252
2014-6-16,65,60,55,52,49,47,86,71,56,29.94,29.90,29.86,10,10,10,32,16,41,0.00,4,,250
2014-6-17,75,64,53,48,46,43,77,56,35,29.96,29.93,29.90,10,10,10,25,10,30,0.00,1,,281
2014-6-18,86,71,55,59,50,43,77,49,21,29.96,29.94,29.91,10,10,10,25,11,31,0.00,0,,299
2014-6-19,72,64,55,52,51,50,86,69,51,30.00,29.98,29.95,10,10,10,24,14,29,0.00,2,,293
2014-6-20,75,66,56,54,51,49,80,63,46,29.99,29.97,29.94,10,10,10,29,14,36,0.00,4,,287
2014-6-21,66,61,56,51,50,49,83,72,60,29.95,29.92,29.89,10,10,10,29,12,35,0.00,4,,280
2014-6-22,68,62,55,52,51,48,80,69,58,29.97,29.94,29.91,10,10,10,31,13,38,0.00,3,,267
2014-6-23,71,64,56,52,51,47,86,67,48,29.97,29.95,29.93,10,10,9,29,15,35,0.00,4,,279
2014-6-24,69,63,57,56,53,50,87,72,57,30.03,29.99,29.96,10,10,10,36,17,41,0.01,3,,278
2014-6-25,69,64,58,59,57,55,93,81,68,30.02,29.99,29.97,10,10,10,23,13,30,T,7,,260
2014-6-26,73,65,57,58,56,53,100,77,53,30.01,29.99,29.97,10,10,5,25,12,29,T,5,Rain,275
2014-6-27,75,67,59,61,57,55,90,74,57,30.00,29.98,29.94,10,10,10,25,13,31,0.00,4,,272
2014-6-28,73,66,58,56,54,52,93,71,49,29.98,29.95,29.91,10,10,10,32,18,38,0.00,4,,276
2014-6-29,80,69,57,60,53,51,86,63,39,29.94,29.90,29.83,10,10,10,30,13,33,0.00,0,,298
2014-6-30,82,71,59,61,55,51,84,63,42,29.84,29.81,29.78,10,10,9,21,10,24,0.00,4,,302